Regional Weather Roundup
Issued by NWS Newport/Morehead, NC

Current Version | Previous Version | Text Only | Print | Product List | Glossary On
Versions: 1 2 3 4 5 6 7 8 9 10 11 12 13 14 15 16 17 18 19 20 21 22 23 24 25 26 27 28 29 30 31 32 33 34 35 36 37 38 39 40 41 42 43 44 45 46 47 48 49 50
146 ASUS42 KMHX 271525 RWRMHX WEATHER ROUNDUP FOR EASTERN NORTH CAROLINA NATIONAL WEATHER SERVICE NEWPORT/MOREHEAD CITY NC 1100 AM EDT WED JUL 27 2016 NOTE: "FAIR" INDICATES FEW OR NO CLOUDS BELOW 12,000 FEET WITH NO SIGNIFICANT WEATHER AND/OR OBSTRUCTIONS TO VISIBILITY NCZ015>017-031-032-045>047-102-103-271600- NORTH COAST CITY SKY/WX TMP DP RH WIND PRES REMARKS EDENTON MOSUNNY 88 75 65 W6 29.97R ELIZABETH CITY MOSUNNY 87 76 69 NW8 29.96R KITTY HAWK MOSUNNY 91 73 56 W8 29.96R MANTEO N/A 87 77 73 W3 29.97R $$ NCZ045>047-081-094-103-104-271600- CENTRAL COAST CITY SKY/WX TMP DP RH WIND PRES REMARKS FRISCO PTSUNNY 85 77 77 VRB6 29.97R $$ NCZ095-097-098-100-101-271600- SOUTHERN COAST CITY SKY/WX TMP DP RH WIND PRES REMARKS BEAUFORT SUNNY 87 78 74 SW9 29.98R HX 100 CEDAR ISLAND NOT AVBL JACKSONVILLE PTSUNNY 88 75 65 W6 29.98S PINEY ISLAND NOT AVBL WILMINGTON SUNNY 90 75 61 W13 30.00S HX 100 $$ NCZ011>013-027>030-043-044-078>080-089-090>093-098-271600- COASTAL PLAIN CITY SKY/WX TMP DP RH WIND PRES REMARKS AHOSKIE SUNNY 84 76 78 CALM 29.98R CLINTON SUNNY 90 76 62 W6 29.99S HX 101 ELIZABETHTOWN SUNNY 91 74 56 NW9 30.00S HX 100 GOLDSBORO MOSUNNY 89 77 67 W8 29.97R HX 101 GREENVILLE SUNNY 90 79 70 NW3 29.99S HX 105 HAVELOCK MOSUNNY 89 76 65 W6 29.99S HX 100 KENANSVILLE NOT AVBL KINSTON SUNNY 88 73 62 W3 29.98F NEW BERN SUNNY 89 76 65 CALM 29.99R HX 100 RICHLANDS PTSUNNY 90 77 65 W5 29.99S HX 103 ROCKY MOUNT SUNNY 88 79 74 CALM 29.97F HX 103 WASHINGTON SUNNY 88 78 72 CALM 29.97S HX 101 WHITEVILLE SUNNY 89 75 62 W8 30.00S $$ AMZ130-135-150-152-154-156-158-170-250-252-270-ANZ085-086-088-633-658-670-271600- MARINE OBSERVATIONS STATION/POSITION TIME TEMP WIND PRES WAVE SWELL AIR SEA DIR/SP/G HT/PER HT/PER (UTC) (F) (DEG/KT/KT) (MB) (FT/S) (FT/S) CHESAPEAKE LIGHT NOT AVBL 64 E VA BEACH 1450 81 81 130/ 4/ 4 1014.4 3/ 6 2/ 6 DUCK 1500 84 65 280/ 6/ 8 1014.0 2 E DUCK 1411 72 N/A 1/ 6 OREGON INLET 1500 84 84 220/ 7/ 9 1014.6 13E OREGON INLT 1400 81 N/A 2/ 5 2/ 5 HATTERAS CG 1500 83 83 260/ 8/ 10 1014.6 DIAMOND BUOY 1450 83 84 270/ 12/ 16 1014.9 4/ 5 2/ 8 CAPE LOOKOUT 1500 85 260/ 12/ 15 1015.1 BEAUFORT LAB 1500 87 82 230/ 4/ 9 1014.7 30 SE NEW RVR IN 1508 85 85 250/ 12/ 16 1015.7 30 SE NEW RVR IN 1425 84 N/A 4/ 6 27 SE WRIGHTSVLE 1508 84 84 250/ 12/ 16 1016.2 5 SE WRIGHTSVLE 1508 84 80 260/ 6/ 8 1016.6 225 S CAPE HAT 1450 85 84 270/ 12/ 16 1017.4 4/ 5 2/ 6 41 SE CHARLESTON 1450 84 86 250/ 10/ 12 1017.1 3/ 6 3/ 6 $$

USA.gov is the U.S. government's official web portal to all federal, state and local government web resources and services.